Murray, KY

12:27 PM CST on December 08, 2019 (GMT -0600)
Kyle-Oakley

Weather History for KCEY - October, 2019

Change the Weather History Date:

Friday, October 25, 2019

  Actual Average (KPAH) Record (KPAH)
Temperature  
Mean Temperature 50 °F -  
Max Temperature 53 °F 66 °F 84 °F (1940)
Min Temperature 48 °F 45 °F 28 °F (1999)
Degree Days  
Heating Degree Days 14    
Moisture  
Dew Point 52 °F    
Average Humidity 100    
Maximum Humidity 100    
Minimum Humidity 94    
Precipitation  
Precipitation 0.23 in - - ()
Sea Level Pressure  
Sea Level Pressure 30.18 in    
Wind  
Wind Speed 7 mph (NNE)    
Max Wind Speed 13 mph    
Max Gust Speed 17 mph    
Visibility 8 miles    
Events      
Averages and records for this station are not official NWS values.
T = Trace of Precipitation, MM = Missing Value Source: NWS Daily Summary

Daily Weather History Graph

Daily Weather History Graph

Search for Another Location

Airport or City:

Astronomy

Oct. 25, 2019 Rise Set
Actual Time 7:09 AM CDT 6:04 PM CDT
Civil Twilight 6:43 AM CDT 6:31 PM CDT
Nautical Twilight 6:13 AM CDT 7:01 PM CDT
Astronomical Twilight 5:43 AM CDT 7:31 PM CDT
Moon 3:59 AM CDT (10/25) 5:00 PM CDT (10/25)
Length of Visible Light 11h 47m
Length of Day
10h 54m
Waning Crescent, 9% of the Moon is Illuminated
Oct 25
Waning Crescent
Oct 27
New
Nov 4
First Quarter
Nov 12
Full
Nov 19
Last Quarter

Hourly Weather History & Observations

Time (CDT) Temp. Dew Point Humidity Pressure Visibility Wind Dir Wind Speed Gust Speed Precip Events Conditions
12:15 AM 51.8 °F 50.0 °F 94% 30.25 in 10.0 mi NNE 5.8 mph - N/A   Clear
12:35 AM 51.8 °F 50.0 °F 94% 30.25 in 10.0 mi North 5.8 mph - N/A   Clear
12:55 AM 51.8 °F 50.0 °F 94% 30.26 in 10.0 mi NNW 4.6 mph - N/A   Clear
1:15 AM 51.8 °F 50.0 °F 94% 30.25 in 10.0 mi North 5.8 mph - N/A   Clear
1:35 AM 51.8 °F 50.0 °F 94% 30.25 in 10.0 mi NNW 6.9 mph - N/A   Clear
1:55 AM 50.0 °F 50.0 °F 100% 30.24 in 10.0 mi North 6.9 mph - N/A   Scattered Clouds
2:15 AM 50.0 °F 50.0 °F 100% 30.24 in 10.0 mi NNE 5.8 mph - N/A   Partly Cloudy
2:35 AM 50.0 °F 50.0 °F 100% 30.24 in 10.0 mi North 6.9 mph - N/A   Clear
2:55 AM 50.0 °F 50.0 °F 100% 30.24 in 10.0 mi North 6.9 mph - N/A   Clear
3:15 AM 50.0 °F 50.0 °F 100% 30.23 in 10.0 mi North 5.8 mph - N/A   Unknown
3:35 AM 50.0 °F 50.0 °F 100% 30.23 in 10.0 mi North 3.5 mph - N/A   Unknown
3:55 AM 50.0 °F 50.0 °F 100% 30.23 in 10.0 mi NNE 4.6 mph - N/A   Unknown
4:15 AM 50.0 °F 50.0 °F 100% 30.22 in 10.0 mi NNE 4.6 mph - N/A   Unknown
4:35 AM 50.0 °F 50.0 °F 100% 30.23 in 10.0 mi North 4.6 mph - N/A   Unknown
5:15 AM 48.2 °F 48.2 °F 100% 30.23 in 10.0 mi NNE 5.8 mph - N/A   Unknown
5:35 AM 48.2 °F 48.2 °F 100% 30.23 in 10.0 mi North 5.8 mph - N/A   Clear
5:55 AM 48.2 °F 48.2 °F 100% 30.23 in 10.0 mi North 6.9 mph - N/A   Clear
6:15 AM 48.2 °F 48.2 °F 100% 30.24 in 10.0 mi North 4.6 mph - N/A   Clear
6:35 AM 48.2 °F 48.2 °F 100% 30.23 in 10.0 mi North 6.9 mph - N/A   Clear
6:55 AM 48.2 °F 48.2 °F 100% 30.23 in 10.0 mi NNE 8.1 mph - N/A   Partly Cloudy
7:15 AM 48.2 °F 48.2 °F 100% 30.23 in 10.0 mi NNE 8.1 mph - N/A   Partly Cloudy
7:55 AM 48.2 °F 48.2 °F 100% 30.23 in 10.0 mi NE 9.2 mph - N/A   Clear
8:15 AM 50.0 °F 50.0 °F 100% 30.24 in 10.0 mi NE 6.9 mph - N/A   Clear
8:35 AM 50.0 °F 50.0 °F 100% 30.24 in 10.0 mi NE 6.9 mph - N/A   Clear
8:55 AM 50.0 °F 50.0 °F 100% 30.25 in 9.0 mi NNE 5.8 mph - N/A   Partly Cloudy
9:15 AM 50.0 °F 50.0 °F 100% 30.25 in 10.0 mi NE 5.8 mph - N/A   Scattered Clouds
9:35 AM 50.0 °F 50.0 °F 100% 30.24 in 10.0 mi NNE 8.1 mph - N/A   Partly Cloudy
9:55 AM 50.0 °F 50.0 °F 100% 30.23 in 10.0 mi NE 6.9 mph - N/A   Clear
10:15 AM 50.0 °F 50.0 °F 100% 30.23 in 10.0 mi ENE 6.9 mph - N/A   Clear
10:35 AM 50.0 °F 50.0 °F 100% 30.24 in 10.0 mi NNE 5.8 mph - N/A   Clear
10:55 AM 51.8 °F 51.8 °F 100% 30.24 in 10.0 mi NE 8.1 mph - N/A   Clear
1:15 PM 53.6 °F 53.6 °F 100% 30.19 in 10.0 mi North 8.1 mph - N/A   Clear
1:35 PM 53.6 °F 53.6 °F 100% 30.18 in 10.0 mi North 6.9 mph - N/A   Clear
1:55 PM 53.6 °F 53.6 °F 100% 30.18 in 9.0 mi North 8.1 mph - N/A   Clear
2:15 PM 53.6 °F 53.6 °F 100% 30.17 in 8.0 mi NNE 6.9 mph - N/A   Clear
2:35 PM 53.6 °F 53.6 °F 100% 30.17 in 8.0 mi NNE 6.9 mph - 0.01 in   Clear
2:55 PM 53.6 °F 53.6 °F 100% 30.16 in 5.0 mi ENE 6.9 mph - 0.01 in   Clear
3:15 PM 53.6 °F 53.6 °F 100% 30.15 in 5.0 mi ENE 6.9 mph - 0.01 in   Clear
3:35 PM 53.6 °F 53.6 °F 100% 30.15 in 5.0 mi NE 5.8 mph - 0.02 in   Clear
3:55 PM 53.6 °F 53.6 °F 100% 30.14 in 5.0 mi NE 6.9 mph - 0.03 in   Clear
4:15 PM 53.6 °F 53.6 °F 100% 30.14 in 5.0 mi NE 6.9 mph - 0.01 in   Clear
4:55 PM 53.6 °F 53.6 °F 100% 30.15 in 5.0 mi North 9.2 mph - 0.02 in   Mostly Cloudy
5:15 PM 53.6 °F 53.6 °F 100% 30.15 in 4.0 mi North 9.2 mph - N/A   Overcast
5:35 PM 53.6 °F 53.6 °F 100% 30.15 in 7.0 mi North 9.2 mph - 0.01 in   Overcast
5:55 PM 53.6 °F 53.6 °F 100% 30.15 in 5.0 mi NNE 8.1 mph - 0.01 in   Overcast
6:15 PM 53.6 °F 53.6 °F 100% 30.14 in 7.0 mi NNE 6.9 mph - N/A   Overcast
6:35 PM 53.6 °F 53.6 °F 100% 30.14 in 7.0 mi NNE 8.1 mph - N/A   Overcast
6:55 PM 53.6 °F 53.6 °F 100% 30.13 in 5.0 mi NNE 9.2 mph - N/A   Overcast
7:15 PM 53.6 °F 53.6 °F 100% 30.12 in 5.0 mi NNE 9.2 mph - N/A   Overcast
7:35 PM 53.6 °F 53.6 °F 100% 30.12 in 6.0 mi NNE 9.2 mph - 0.01 in   Overcast
7:55 PM 53.6 °F 53.6 °F 100% 30.13 in 7.0 mi NE 11.5 mph - 0.01 in   Overcast
8:15 PM 53.6 °F 53.6 °F 100% 30.12 in 6.0 mi NNE 10.4 mph - N/A   Overcast
8:35 PM 53.6 °F 53.6 °F 100% 30.11 in 5.0 mi NNE 9.2 mph - 0.01 in   Unknown
8:55 PM 53.6 °F 53.6 °F 100% 30.10 in 5.0 mi NNE 12.7 mph - 0.02 in   Overcast
9:15 PM 53.6 °F 53.6 °F 100% 30.09 in 5.0 mi NE 11.5 mph - 0.01 in   Unknown
9:35 PM 53.6 °F 53.6 °F 100% 30.09 in 8.0 mi NE 10.4 mph 16.1 mph 0.02 in   Unknown
9:55 PM 53.6 °F 53.6 °F 100% 30.09 in 8.0 mi NE 10.4 mph - 0.03 in   Unknown
10:15 PM 53.6 °F 53.6 °F 100% 30.07 in 5.0 mi NE 10.4 mph 17.3 mph 0.02 in   Unknown
10:35 PM 53.6 °F 53.6 °F 100% 30.06 in 5.0 mi NE 10.4 mph 17.3 mph 0.04 in   Unknown
10:55 PM 53.6 °F 53.6 °F 100% 30.05 in 3.0 mi NE 9.2 mph 16.1 mph 0.07 in   Unknown
11:35 PM 53.6 °F 53.6 °F 100% 30.02 in 5.0 mi NE 12.7 mph - 0.02 in   Unknown
11:55 PM 53.6 °F 53.6 °F 100% 30.00 in 5.0 mi NE 10.4 mph - 0.03 in   Unknown